This is the latest recevied weather packets stored in our database for station/object KB1YYC. If no packets are shown the sender has not sent any weather packets the latest 10 day(s).
| Time | Temp. | Humidity | Pressure | Rain* | Wind** | Luminosity | Snow |
|---|---|---|---|---|---|---|---|
| 1777940292 | 13.89° C | 56% | 1006.6 hPa | 0 mm | - | 0 W/m² | - |
| 1777939989 | 14.44° C | 55% | 1006.6 hPa | 0 mm | - | 0 W/m² | - |
| 1777939686 | 15° C | 55% | 1006.7 hPa | 0 mm | - | 0 W/m² | - |
| 1777939384 | 15° C | 52% | 1006.5 hPa | 0 mm | - | 0 W/m² | - |
| 1777939080 | 15.56° C | 51% | 1006.5 hPa | 0 mm | - | 1 W/m² | - |
| 1777938777 | 16.11° C | 49% | 1006.5 hPa | 0 mm | - | 1 W/m² | - |
| 1777938474 | 16.67° C | 45% | 1006.3 hPa | 0 mm | - | 2 W/m² | - |
| 1777938172 | 17.22° C | 46% | 1006.4 hPa | 0 mm | - | 3 W/m² | - |
| 1777937868 | 17.78° C | 40% | 1006.3 hPa | 0 mm | - | 5 W/m² | - |
| 1777937563 | 18.33° C | 40% | 1006.3 hPa | 0 mm | - | 7 W/m² | - |
| 1777937261 | 18.89° C | 40% | 1006.2 hPa | 0 mm | - | 8 W/m² | - |
| 1777936957 | 19.44° C | 38% | 1006.2 hPa | 0 mm | - | 10 W/m² | - |
| 1777936655 | 19.44° C | 38% | 1006 hPa | 0 mm | - | 14 W/m² | - |
| 1777936351 | 20° C | 37% | 1005.9 hPa | 0 mm | - | 16 W/m² | - |
| 1777936047 | 20° C | 36% | 1005.7 hPa | 0 mm | - | 18 W/m² | - |
| 1777935746 | 20° C | 35% | 1005.8 hPa | 0 mm | - | 22 W/m² | - |
| 1777935444 | 20° C | 34% | 1005.7 hPa | 0 mm | - | 26 W/m² | - |
| 1777935140 | 20.56° C | 35% | 1005.6 hPa | 0 mm | - | 35 W/m² | - |
| 1777934837 | 20.56° C | 35% | 1005.4 hPa | 0 mm | - | 47 W/m² | - |
| 1777934535 | 20.56° C | 35% | 1005.5 hPa | 0 mm | - | 44 W/m² | - |
| 1777934231 | 20.56° C | 35% | 1005.6 hPa | 0 mm | - | 35 W/m² | - |
| 1777933926 | 20.56° C | 36% | 1005.5 hPa | 0 mm | - | 45 W/m² | - |
| 1777933623 | 20.56° C | 34% | 1005.6 hPa | 0 mm | - | 49 W/m² | - |
| 1777933320 | 20.56° C | 35% | 1005.5 hPa | 0 mm | - | 55 W/m² | - |
| 1777933018 | 20.56° C | 34% | 1005.5 hPa | 0 mm | - | 52 W/m² | - |
* Rain latest hour (hover to see other rain measurements)
** Current wind speed in m/s (hover to see current wind gust speed)